• In Hungary
  • List of Countries
  • For 7 days
  • Water Temperature
  • Satellite Maps
  • Weather Map
  • News
  • Weather Widgets
  • user-avatar
    Login

    Hourly Weather Kakanj

    Today, 20 May, Sunday

    Time Temperature Precipitation Wind Pressure Humidity
    00:00 +12°C° 0 mm 1 mps 723 mmHg 95%
    01:00 +12°C° 0 mm 1 mps 723 mmHg 95%
    02:00 +12°C° 0 mm 1 mps 723 mmHg 96%
    03:00 +12°C° 0 mm 1 mps 723 mmHg 96%
    04:00 +12°C° 0 mm 1 mps 723 mmHg 96%
    05:00 +13°C° 0 mm 1 mps 723 mmHg 92%
    06:00 +15°C° 0 mm 1 mps 724 mmHg 88%
    07:00 +18°C° 0 mm 1 mps 724 mmHg 83%
    08:00 +18°C° 0 mm 2 mps 724 mmHg 74%
    09:00 +19°C° 0 mm 2 mps 724 mmHg 66%
    10:00 +21°C° 0 mm 3 mps 724 mmHg 58%
    11:00 +21°C° 0.1 mm 3 mps 724 mmHg 56%
    12:00 +22°C° 0.1 mm 3 mps 724 mmHg 55%
    13:00 +22°C° 0.1 mm 4 mps 724 mmHg 54%
    14:00 +22°C° 0.1 mm 4 mps 724 mmHg 55%
    15:00 +22°C° 0.1 mm 3 mps 723 mmHg 56%
    16:00 +22°C° 0.1 mm 3 mps 723 mmHg 57%
    17:00 +20°C° 0.1 mm 3 mps 723 mmHg 66%
    18:00 +18°C° 0.1 mm 2 mps 723 mmHg 74%
    19:00 +16°C° 0.1 mm 1 mps 722 mmHg 83%
    20:00 +15°C° 0 mm 1 mps 723 mmHg 85%
    21:00 +14°C° 0 mm 1 mps 723 mmHg 88%
    22:00 +13°C° 0 mm 1 mps 723 mmHg 91%
    23:00 +13°C° 0 mm 1 mps 723 mmHg 92%

    Tomorrow, 21 May, Monday

    Time Temperature Precipitation Wind Pressure Humidity
    00:00 +12°C° 0 mm 1 mps 723 mmHg 92%
    01:00 +12°C° 0 mm 1 mps 723 mmHg 93%
    02:00 +12°C° 0 mm 1 mps 722 mmHg 93%
    03:00 +12°C° 0 mm 1 mps 722 mmHg 93%
    04:00 +10°C° 0 mm 0 mps 722 mmHg 94%
    05:00 +13°C° 0 mm 1 mps 722 mmHg 89%
    06:00 +15°C° 0 mm 1 mps 722 mmHg 84%
    07:00 +18°C° 0 mm 1 mps 723 mmHg 80%
    08:00 +19°C° 0 mm 1 mps 723 mmHg 75%
    09:00 +21°C° 0 mm 1 mps 723 mmHg 70%
    10:00 +22°C° 0 mm 1 mps 723 mmHg 66%
    11:00 +23°C° 0.2 mm 1 mps 722 mmHg 64%
    12:00 +23°C° 0.2 mm 1 mps 722 mmHg 62%
    13:00 +24°C° 0.2 mm 1 mps 722 mmHg 61%
    14:00 +24°C° 0.5 mm 1 mps 722 mmHg 64%
    15:00 +23°C° 0.5 mm 1 mps 721 mmHg 67%
    16:00 +23°C° 0.5 mm 1 mps 721 mmHg 71%
    17:00 +21°C° 0.6 mm 1 mps 721 mmHg 77%
    18:00 +20°C° 0.6 mm 1 mps 721 mmHg 84%
    19:00 +16°C° 0.6 mm 0 mps 720 mmHg 90%
    20:00 +15°C° 0.3 mm 0 mps 721 mmHg 91%
    21:00 +15°C° 0.3 mm 0 mps 721 mmHg 92%
    22:00 +14°C° 0.3 mm 0 mps 721 mmHg 93%
    23:00 +15°C° 0.1 mm 1 mps 721 mmHg 93%

    Day after tomorrow, 22 May, Tuesday

    Time Temperature Precipitation Wind Pressure Humidity
    00:00 +15°C° 0.1 mm 1 mps 721 mmHg 93%
    01:00 +14°C° 0.1 mm 1 mps 721 mmHg 93%
    02:00 +15°C° 0.1 mm 1 mps 721 mmHg 93%
    03:00 +15°C° 0.1 mm 1 mps 721 mmHg 93%
    04:00 +15°C° 0.1 mm 1 mps 721 mmHg 93%
    05:00 +16°C° 0 mm 1 mps 721 mmHg 89%
    06:00 +18°C° 0 mm 1 mps 721 mmHg 85%
    07:00 +20°C° 0 mm 1 mps 722 mmHg 82%
    08:00 +21°C° 0.2 mm 1 mps 722 mmHg 74%
    09:00 +23°C° 0.2 mm 1 mps 722 mmHg 67%
    10:00 +25°C° 0.2 mm 1 mps 723 mmHg 60%
    11:00 +25°C° 0.7 mm 2 mps 723 mmHg 62%
    12:00 +25°C° 0.7 mm 2 mps 722 mmHg 65%
    13:00 +25°C° 0.7 mm 2 mps 722 mmHg 67%
    14:00 +24°C° 1 mm 2 mps 722 mmHg 69%
    15:00 +24°C° 1 mm 2 mps 722 mmHg 70%
    16:00 +24°C° 1 mm 1 mps 722 mmHg 72%
    17:00 +22°C° 0.3 mm 1 mps 722 mmHg 77%
    18:00 +21°C° 0.3 mm 1 mps 722 mmHg 82%
    19:00 +19°C° 0.3 mm 1 mps 722 mmHg 87%
    20:00 +18°C° 0 mm 1 mps 722 mmHg 88%
    21:00 +16°C° 0 mm 1 mps 723 mmHg 90%
    22:00 +15°C° 0 mm 1 mps 723 mmHg 92%
    23:00 +15°C° 0 mm 1 mps 723 mmHg 92%

    23 May, Wednesday

    Time Temperature Precipitation Wind Pressure Humidity
    00:00 +15°C° 0 mm 1 mps 723 mmHg 92%
    01:00 +15°C° 0 mm 1 mps 723 mmHg 91%
    02:00 +14°C° 0 mm 1 mps 723 mmHg 91%
    03:00 +14°C° 0 mm 1 mps 723 mmHg 90%
    04:00 +14°C° 0 mm 1 mps 723 mmHg 90%
    05:00 +16°C° 0 mm 1 mps 723 mmHg 85%
    06:00 +19°C° 0 mm 1 mps 723 mmHg 80%
    07:00 +19°C° 0 mm 0 mps 723 mmHg 76%
    08:00 +22°C° 0.2 mm 1 mps 724 mmHg 69%
    09:00 +24°C° 0.2 mm 1 mps 724 mmHg 62%
    10:00 +25°C° 0.2 mm 1 mps 724 mmHg 55%
    11:00 +25°C° 0.8 mm 1 mps 724 mmHg 60%
    12:00 +25°C° 0.8 mm 1 mps 723 mmHg 64%
    13:00 +24°C° 0.8 mm 1 mps 723 mmHg 68%
    14:00 +24°C° 1.3 mm 1 mps 723 mmHg 72%
    15:00 +23°C° 1.3 mm 1 mps 723 mmHg 77%
    16:00 +23°C° 1.3 mm 1 mps 722 mmHg 81%
    17:00 +22°C° 1 mm 1 mps 722 mmHg 84%
    18:00 +18°C° 1 mm 0 mps 722 mmHg 86%
    19:00 +17°C° 1 mm 0 mps 722 mmHg 89%
    20:00 +16°C° 0.2 mm 0 mps 722 mmHg 90%
    21:00 +16°C° 0.2 mm 0 mps 722 mmHg 91%
    22:00 +15°C° 0.2 mm 0 mps 722 mmHg 92%
    23:00 +15°C° 0.1 mm 0 mps 722 mmHg 92%

    24 May, Thursday

    Time Temperature Precipitation Wind Pressure Humidity
    00:00 +14°C° 0.1 mm 0 mps 722 mmHg 93%
    01:00 +15°C° 0.1 mm 1 mps 722 mmHg 93%
    02:00 +15°C° 0.1 mm 1 mps 722 mmHg 93%
    03:00 +15°C° 0.1 mm 1 mps 722 mmHg 93%
    04:00 +14°C° 0.1 mm 1 mps 722 mmHg 94%
    05:00 +16°C° 0 mm 1 mps 722 mmHg 91%
    06:00 +18°C° 0 mm 1 mps 722 mmHg 89%
    07:00 +20°C° 0 mm 1 mps 722 mmHg 86%
    08:00 +21°C° 0.3 mm 1 mps 722 mmHg 81%
    09:00 +23°C° 0.3 mm 1 mps 722 mmHg 76%
    10:00 +24°C° 0.3 mm 2 mps 722 mmHg 70%
    11:00 +24°C° 0.8 mm 2 mps 722 mmHg 69%
    12:00 +25°C° 0.8 mm 2 mps 722 mmHg 69%
    13:00 +25°C° 0.8 mm 2 mps 722 mmHg 68%
    14:00 +25°C° 1.1 mm 2 mps 722 mmHg 71%
    15:00 +24°C° 1.1 mm 2 mps 721 mmHg 74%
    16:00 +24°C° 1.1 mm 2 mps 721 mmHg 77%
    17:00 +23°C° 1.3 mm 2 mps 721 mmHg 81%
    18:00 +21°C° 1.3 mm 1 mps 721 mmHg 86%
    19:00 +20°C° 1.3 mm 1 mps 721 mmHg 91%
    20:00 +19°C° 0.2 mm 1 mps 721 mmHg 92%
    21:00 +18°C° 0.2 mm 1 mps 721 mmHg 92%
    22:00 +18°C° 0.2 mm 1 mps 721 mmHg 93%
    23:00 +16°C° 0 mm 1 mps 721 mmHg 93%

    25 May, Friday

    Time Temperature Precipitation Wind Pressure Humidity
    00:00 +16°C° 0 mm 1 mps 721 mmHg 93%
    01:00 +15°C° 0 mm 1 mps 721 mmHg 94%
    02:00 +15°C° 0 mm 1 mps 721 mmHg 94%
    03:00 +15°C° 0 mm 1 mps 721 mmHg 94%
    04:00 +14°C° 0 mm 1 mps 721 mmHg 94%
    05:00 +16°C° 0 mm 1 mps 722 mmHg 92%
    06:00 +19°C° 0 mm 1 mps 722 mmHg 89%
    07:00 +20°C° 0 mm 1 mps 722 mmHg 86%
    08:00 +22°C° 0 mm 1 mps 722 mmHg 75%
    09:00 +24°C° 0 mm 2 mps 722 mmHg 64%
    10:00 +26°C° 0 mm 2 mps 723 mmHg 53%
    11:00 +26°C° 0 mm 2 mps 723 mmHg 51%
    12:00 +27°C° 0 mm 3 mps 722 mmHg 49%
    13:00 +28°C° 0 mm 3 mps 722 mmHg 47%
    14:00 +27°C° 0 mm 3 mps 722 mmHg 50%
    15:00 +27°C° 0 mm 3 mps 722 mmHg 53%
    16:00 +27°C° 0 mm 3 mps 722 mmHg 56%
    17:00 +25°C° 0.1 mm 2 mps 722 mmHg 66%
    18:00 +23°C° 0.1 mm 2 mps 722 mmHg 75%
    19:00 +21°C° 0.1 mm 1 mps 722 mmHg 85%
    20:00 +20°C° 0 mm 1 mps 722 mmHg 87%
    21:00 +19°C° 0 mm 1 mps 722 mmHg 89%
    22:00 +18°C° 0 mm 1 mps 723 mmHg 91%
    23:00 +18°C° 0 mm 1 mps 723 mmHg 92%
    Show more